Marathon, FL

2:06 AM EDT on April 24, 2017 (GMT -0400)
Florida Keys Marathon

Weather History for KMTH - February, 2012

Change the Weather History Date:

Monday, February 6, 2012

  Actual Average Record
Temperature  
Mean Temperature 74 °F 71 °F  
Max Temperature 79 °F 76 °F 86 °F (2008)
Min Temperature 68 °F 66 °F 49 °F (2009)
Degree Days  
Heating Degree Days 0 1  
Month to date heating degree days 0 2  
Since 1 July heating degree days 26 61  
Cooling Degree Days 9 7  
Month to date cooling degree days 67 37  
Year to date cooling degree days 284 218  
Growing Degree Days 23 (Base 50)    
Moisture  
Dew Point 70 °F    
Average Humidity 88    
Maximum Humidity 100    
Minimum Humidity 76    
Precipitation  
Precipitation 0.82 in 0.06 in 0.82 in (2012)
Month to date precipitation 1.09 0.37  
Year to date precipitation 1.66 1.98  
Snow  
Snow 0.00 in - - ()
Month to date snowfall 0.0  
Since 1 July snowfall 0.0  
Snow Depth 0.00 in    
Sea Level Pressure  
Sea Level Pressure 30.00 in    
Wind  
Wind Speed 8 mph (East)    
Max Wind Speed 15 mph    
Max Gust Speed 23 mph    
Visibility 8 miles    
Events Rain    
T = Trace of Precipitation, MM = Missing Value Source: NWS Daily Summary

Daily Weather History Graph

Daily Weather History Graph

Search for Another Location

Airport or City:

Trip Planner

Search our weather history database for the weather conditions in past years. The results will help you decide how hot, cold, wet, or windy it might be!

Date:

Astronomy

Feb. 06, 2012 Rise Set
Actual Time 7:04 AM EST 6:12 PM EST
Civil Twilight 6:40 AM EST 6:36 PM EST
Nautical Twilight 6:13 AM EST 7:03 PM EST
Astronomical Twilight 5:46 AM EST 7:30 PM EST
Moon 5:15 PM EST (2/6) 5:51 AM EST (2/6)
Length of Visible Light 11h 55m
Length of Day
11h 08m
Waxing Gibbous, 98% of the Moon is Illuminated
Feb 6
Waxing Gibbous
Feb 7
Full
Feb 14
Last Quarter
Feb 21
New
Feb 29
First Quarter

Hourly Weather History & Observations

Time (EST) Temp. Dew Point Humidity Pressure Visibility Wind Dir Wind Speed Gust Speed Precip Events Conditions
12:53 AM 71.1 °F - N/A% 30.02 in 4.0 mi NNE 3.5 mph - 0.16 in Rain Heavy Rain
1:43 AM 69.8 °F - N/A% 30.02 in 3.0 mi South 3.5 mph - 0.18 in Rain Heavy Rain
1:45 AM 69.8 °F - N/A% 30.01 in 2.5 mi Calm Calm - 0.20 in Rain Heavy Rain
1:53 AM 70.0 °F - N/A% 30.01 in 2.5 mi West 4.6 mph - 0.24 in Rain Rain
2:04 AM 69.8 °F - N/A% 30.00 in 1.2 mi NW 3.5 mph - 0.17 in Rain Heavy Rain
2:12 AM 69.8 °F - N/A% 30.00 in 2.0 mi West 3.5 mph - 0.24 in Rain Heavy Rain
2:14 AM 69.8 °F - N/A% 30.00 in 1.8 mi West 3.5 mph - 0.27 in Rain Heavy Rain
2:27 AM 69.8 °F - N/A% 30.00 in 3.0 mi NW 3.5 mph - 0.35 in Rain Rain
2:45 AM 69.8 °F - N/A% 30.00 in 9.0 mi NNE 4.6 mph - 0.35 in Rain Light Rain
2:53 AM 70.0 °F - N/A% 29.99 in 9.0 mi North 4.6 mph - 0.35 in Rain Light Rain
3:00 AM 69.8 °F - N/A% 29.99 in 8.0 mi NNE 4.6 mph - 0.00 in Rain Light Rain
3:11 AM 69.8 °F - N/A% 30.00 in 5.0 mi NE 9.2 mph - 0.02 in Rain Rain
3:21 AM 68.0 °F - N/A% 29.99 in 4.0 mi ENE 6.9 mph - 0.06 in Rain Heavy Rain
3:29 AM 68.0 °F - N/A% 29.99 in 6.0 mi NE 6.9 mph - 0.06 in Rain Light Rain
3:37 AM 69.8 °F - N/A% 29.99 in 9.0 mi NNE 4.6 mph - 0.07 in Rain Light Rain
3:53 AM 68.0 °F - N/A% 29.99 in 10.0 mi NE 11.5 mph - 0.07 in   Overcast
4:10 AM 69.8 °F - N/A% 29.98 in 10.0 mi NE 10.4 mph - N/A   Overcast
4:53 AM 70.0 °F - N/A% 29.98 in 10.0 mi ENE 8.1 mph - N/A   Overcast
5:53 AM 69.1 °F - N/A% 29.98 in 10.0 mi ENE 4.6 mph - N/A   Mostly Cloudy
6:53 AM 71.1 °F 71.1 °F 100% 30.00 in 10.0 mi East 10.4 mph - N/A   Scattered Clouds
7:53 AM 72.0 °F 70.0 °F 93% 30.01 in 10.0 mi East 9.2 mph - N/A   Partly Cloudy
8:18 AM 71.6 °F 69.8 °F 94% 30.02 in 10.0 mi East 9.2 mph - N/A   Mostly Cloudy
8:53 AM 73.0 °F 70.0 °F 90% 30.04 in 10.0 mi East 6.9 mph - N/A   Overcast
9:09 AM 73.4 °F 69.8 °F 88% 30.04 in 10.0 mi East 11.5 mph 18.4 mph N/A   Overcast
9:42 AM 73.4 °F 69.8 °F 88% 30.04 in 10.0 mi East 9.2 mph 19.6 mph N/A   Overcast
9:51 AM 75.2 °F 69.8 °F 83% 30.04 in 10.0 mi East 12.7 mph 20.7 mph N/A   Overcast
9:53 AM 75.0 °F 70.0 °F 84% 30.04 in 10.0 mi ESE 12.7 mph 20.7 mph N/A   Overcast
10:53 AM 77.0 °F 70.0 °F 79% 30.05 in 10.0 mi ESE 9.2 mph 19.6 mph N/A   Scattered Clouds
11:53 AM 77.0 °F 70.0 °F 79% 30.04 in 10.0 mi ESE 9.2 mph 18.4 mph N/A   Mostly Cloudy
12:33 PM 77.0 °F 71.6 °F 83% 30.02 in 10.0 mi ESE 8.1 mph 17.3 mph N/A   Mostly Cloudy
12:41 PM 78.8 °F 71.6 °F 78% 30.01 in 10.0 mi ESE 9.2 mph 18.4 mph N/A   Mostly Cloudy
12:53 PM 75.9 °F 70.0 °F 82% 30.01 in 10.0 mi ESE 9.2 mph 19.6 mph N/A   Mostly Cloudy
1:53 PM 78.1 °F 71.1 °F 79% 29.99 in 10.0 mi ESE 11.5 mph 18.4 mph N/A   Mostly Cloudy
2:53 PM 75.9 °F 72.0 °F 87% 29.97 in 10.0 mi SE 11.5 mph 21.9 mph 0.00 in Rain Light Rain
3:53 PM 77.0 °F 70.0 °F 79% 29.96 in 10.0 mi SE 10.4 mph 19.6 mph 0.00 in   Clear
4:53 PM 77.0 °F 69.1 °F 76% 29.96 in 10.0 mi SSE 9.2 mph - N/A   Clear
5:53 PM 75.9 °F 70.0 °F 82% 29.97 in 10.0 mi SSE 6.9 mph - N/A   Clear
6:53 PM 75.9 °F 70.0 °F 82% 29.98 in 10.0 mi SSE 4.6 mph - N/A   Mostly Cloudy
7:53 PM 75.9 °F 70.0 °F 82% 29.99 in 10.0 mi SSE 8.1 mph - 0.00 in   Overcast
8:53 PM 75.9 °F 70.0 °F 82% 29.99 in 10.0 mi SE 5.8 mph - N/A   Partly Cloudy
9:53 PM 73.9 °F 71.1 °F 91% 30.00 in 10.0 mi SE 8.1 mph - N/A   Scattered Clouds
10:53 PM 75.0 °F 71.1 °F 87% 30.01 in 10.0 mi Calm Calm - N/A   Partly Cloudy
11:53 PM 75.0 °F 71.1 °F 87% 30.01 in 10.0 mi SE 3.5 mph - N/A   Partly Cloudy